Location: Monfort
(47.1967°N, 0.2115°W)
Time: 07:55:51
(UTC+00:00)

Cosmos 2082 - Pass Details

Date: 24 October 2020
Orbit: 832 x 857 km, 71.0° (Epoch: 28 November)

Event Time Altitude Azimuth Distance (km) Brightness Sun altitude
Rises 19:21:27 0° 333° (NNW) 3,435 7.4 -25.2°
Reaches altitude 10° 19:23:55 10° 334° (NNW) 2,497 6.6 -25.6°
Maximum altitude 19:29:40 82° 62° (ENE) 871 3.6 -26.6°
Enters shadow 19:30:01 78° 115° (ESE) 882 3.5 -26.6°
